SM7GXQ Weather Reports


time (UTC)temp
C
wind
direction
speed
KPH
gust
KPH
rain 1hr
cm
rain 24hr
cm
rain mn
cm
humidity
%
barometer
mb
20260905130004 18 286 11.3 25.7 0.00 0.71 0.10 72 1001.5
20260905123004 18 281 14.5 25.7 0.00 0.74 0.10 69 1001.4
20260905120004 18 255 8.0 22.5 0.00 0.74 0.10 74 1001.2
20260905113005 17 278 9.7 19.3 0.08 0.74 0.10 76 1001.3
20260905100004 16 256 8.0 19.3 0.00 0.66 0.03 81 1000.5
20260905084504 16 277 9.7 20.9 0.00 0.66 0.03 82 999.8
20260905080006 16 276 12.9 20.9 0.00 0.66 0.03 83 999.2
20260905070005 15 260 8.0 19.3 0.00 0.66 0.03 87 999.0
20260905060004 14 273 4.8 19.3 0.00 0.66 0.03 89 998.2
20260905054504 14 280 11.3 20.9 0.00 0.66 0.03 89 998.0
20260905051504 14 260 4.8 16.1 0.00 0.66 0.03 90 998.0
20260905043005 13 265 4.8 19.3 0.00 0.66 0.03 91 997.4
20260905041505 13 274 4.8 14.5 0.00 0.66 0.03 91 997.0
20260905033005 13 264 4.8 14.5 0.00 0.66 0.03 91 996.4
20260905030005 13 275 3.2 12.9 0.00 0.66 0.03 91 996.0
20260905023005 13 271 4.8 19.3 0.00 0.66 0.03 89 996.0
20260905021505 13 251 4.8 16.1 0.03 0.66 0.03 89 996.0
20260905020005 13 251 6.4 16.1 0.03 0.66 0.03 89 996.0
20260905014504 14 272 4.8 19.3 0.03 0.69 0.03 90 996.0
20260905010004 14 248 4.8 14.5 0.00 0.71 0.00 90 995.9
20260905003003 14 271 6.4 19.3 0.00 0.71 0.00 91 995.9
20260905001503 14 251 4.8 19.3 0.00 0.71 0.00 91 995.9
20260904234504 14 268 4.8 14.5 0.00 0.71 0.00 90 995.5
20260904231504 15 280 6.4 14.5 0.00 0.71 0.00 91 995.5
20260904230004 15 281 8.0 12.9 0.00 0.71 0.00 91 995.7
20260904223004 15 293 4.8 9.7 0.00 0.71 0.00 92 995.5
20260904221505 15 277 3.2 9.7 0.00 0.71 0.00 93 995.1
20260904220004 15 279 6.4 11.3 0.00 0.71 0.00 93 995.1
20260904214505 15 269 4.8 9.7 0.00 0.71 0.71 93 995.1
20260904210004 15 232 1.6 8.0 0.00 0.79 0.71 93 995.0
20260904204504 15 259 3.2 9.7 0.00 0.89 0.71 93 995.1
20260904203005 15 207 1.6 12.9 0.00 0.94 0.71 93 995.2
20260904184504 15 236 3.2 9.7 0.03 0.97 0.71 93 995.6
20260904181503 15 220 4.8 16.1 0.00 1.57 0.69 93 995.6
20260904180004 15 230 4.8 12.9 0.05 1.57 0.69 93 995.6
20260904174504 15 195 4.8 19.3 0.13 1.57 0.69 94 995.6
20260904170004 15 212 1.6 12.9 0.18 1.55 0.64 93 996.0
20260904164505 15 224 3.2 12.9 0.13 1.47 0.56 93 996.0
20260904163004 15 213 4.8 11.3 0.08 1.45 0.51 93 996.5
20260904161504 15 202 4.8 11.3 0.13 1.45 0.51 93 996.5
20260904160005 15 170 3.2 11.3 0.13 1.40 0.46 93 996.5
20260904150004 15 211 4.8 19.3 0.15 1.27 0.33 92 997.1
20260904143005 15 182 1.6 8.0 0.10 1.19 0.25 91 997.7